User: anonymous   Login
Location: Grisols
(45.0093°N, 3.1167°E)
Time: 04:56:03
(UTC+00:00)
Language:

Abrixas rocket - Orbit

View from above orbital plane
View from above orbital plane
View from above satellite
View from above satellite

Ground track
Ground track

The orbit data is extracted from the following two-line orbital elements,

1 25723U 99022C   19346.20725480  .00011711  00000-0  10375-3 0  9992
2 25723  48.4127 314.4780 0006300 137.0365 223.1079 15.68968786148379
Epoch (UTC): 12 December 2019 04:58:26
Eccentricity: 0.0006300
inclination: 48.4127°
perigee height: 357 km
apogee height: 366 km
right ascension of ascending node: 314.4780°
argument of perigee: 137.0365°
revolutions per day: 15.68968786
mean anomaly at epoch: 223.1079°
orbit number at epoch: 14837

The dashed part of the orbit path shows where the satellite is in the earth's shadow,  

DLR